Weather History for San Antonio Stinson, TX

Change the Weather History Date:

Monday, October 3, 2011

  Actual Average Record
Temperature  
Mean Temperature 74 °F -  
Max Temperature 88 °F 82 °F 95 °F (1999)
Min Temperature 60 °F 62 °F 55 °F (2003)
Cooling Degree Days 8    
Growing Degree Days 24 (Base 50)    
Moisture  
Dew Point 48 °F    
Average Humidity 47    
Maximum Humidity 78    
Minimum Humidity 19    
Precipitation  
Precipitation 0.00 in - - ()
Sea Level Pressure  
Sea Level Pressure 30.14 in    
Wind  
Wind Speed 2 mph (SE)    
Max Wind Speed 10 mph    
Max Gust Speed 20 mph    
Visibility 10 miles    
Events      
Averages and records for this station are not official NWS values.
T = Trace of Precipitation, MM = Missing Value Source: NWS Daily Summary

Daily Weather History Graph

Daily Weather History Graph

Search for Another Location

Airport:

Trip Planner

Search our weather history database for the weather conditions in past years. The results will help you decide how hot, cold, wet, or windy it might be!

Date:

Astronomy

Oct. 03, 2011 Rise Set
Actual Time 7:28 AM CDT 7:17 PM CDT
Civil Twilight 7:04 AM CDT 7:41 PM CDT
Nautical Twilight 6:36 AM CDT 8:08 PM CDT
Astronomical Twilight 6:09 AM CDT 8:36 PM CDT
Moon 2:03 PM CDT (10/3) No Moon Set
Length of Visible Light 12h 36m
Length of Day
11h 49m
Waxing Crescent, 45% of the Moon is Illuminated
Oct 3
Waxing Crescent
Oct 3
First Quarter
Oct 11
Full
Oct 19
Last Quarter
Oct 26
New

Hourly Weather History & Observations

Time (CDT) Temp. Dew Point Humidity Pressure Visibility Wind Dir Wind Speed Gust Speed Precip Events Conditions
12:53 AM 64.0 °F 48.0 °F 56% 30.12 in 10.0 mi Calm Calm - N/A   Clear
2:53 AM 62.1 °F 50.0 °F 65% 30.12 in 10.0 mi Calm Calm - N/A   Clear
3:53 AM 61.0 °F 52.0 °F 72% 30.12 in 10.0 mi Calm Calm - N/A   Clear
4:53 AM 60.1 °F 52.0 °F 75% 30.13 in 10.0 mi Calm Calm - N/A   Clear
5:53 AM 62.1 °F 53.1 °F 72% 30.14 in 10.0 mi Calm Calm - N/A   Clear
6:53 AM 60.1 °F 53.1 °F 78% 30.16 in 10.0 mi Calm Calm - N/A   Clear
7:53 AM 60.1 °F 53.1 °F 78% 30.17 in 10.0 mi Calm Calm - N/A   Clear
9:53 AM 73.0 °F 55.9 °F 55% 30.21 in 10.0 mi Calm Calm - N/A   Clear
10:53 AM 78.1 °F 55.0 °F 45% 30.21 in 10.0 mi SE 8.1 mph - N/A   Clear
11:53 AM 81.0 °F 48.0 °F 31% 30.20 in 10.0 mi ESE 4.6 mph - N/A   Clear
1:53 PM 86.0 °F 44.1 °F 23% 30.15 in 10.0 mi ENE 6.9 mph - N/A   Clear
2:53 PM 86.0 °F 44.1 °F 23% 30.12 in 10.0 mi SSE 8.1 mph 19.6 mph N/A   Clear
3:53 PM 87.1 °F 43.0 °F 21% 30.11 in 10.0 mi SE 10.4 mph - N/A   Clear
4:53 PM 87.1 °F 39.9 °F 19% 30.09 in 10.0 mi Variable 6.9 mph - N/A   Clear
5:53 PM 86.0 °F 42.1 °F 21% 30.09 in 10.0 mi SE 6.9 mph - N/A   Clear
6:53 PM 82.9 °F 43.0 °F 24% 30.09 in 10.0 mi SE 8.1 mph - N/A   Clear
8:53 PM 72.0 °F 46.0 °F 40% 30.12 in 10.0 mi ESE 3.5 mph - N/A   Clear
9:53 PM 70.0 °F 46.0 °F 42% 30.13 in 10.0 mi SE 4.6 mph - N/A   Clear
10:53 PM 70.0 °F 48.9 °F 47% 30.15 in 10.0 mi SE 4.6 mph - N/A   Clear
11:53 PM 68.0 °F 50.0 °F 52% 30.15 in 10.0 mi Calm Calm - N/A   Clear